1998-067VJ

Last updated on Thu May 11 2023 00:02:07 GMT+0000 (Coordinated Universal Time)

1 56434U 98067VJ 23130.27807360 .00048521 00000+0 82786-3 0 9997 2 56434 51.6382 156.4021 0007959 329.8401 30.2129 15.50814165 1032

Satellite not in orbit

1998-067VJ